Notices

What's New in latest Release from April 7th, 2021:

- Updated Glossary, including Speed of Maximum Gust, and Total Hourly Precipitation

- Updated national and regional climate services offices contacts and prices information

- Addition of station inventory lists for 1981-2010, 1971-2000, and 1961-1990 Normals.

If you haven't already, please take our survey and provide feedback about our website: https://eccc.sondage-survey.ca/f/LanguageSelection.aspx?s=442ca660-fcf1-47c0-95a9-59707d6fd709

Hourly Data Report for May 01, 2012

MIRAMICHI RCS
NEW BRUNSWICK

47°00'34.000" N
65°27'54.000" W
33.00 m
8100989
71744
ACQ

Download Data

Hourly Data (May 2012)
Hourly Data Report for May 1, 2012
TIME
LST
Temp Definition
°C
Dew Point Definition
°C
Rel Hum Definition
%
Precip. Amount Definition
mm

Wind Dir Definition
10's deg

Wind Spd Definition
km/h
Visibility Definition
km
Stn Press Definition
kPa
Hmdx Definition


Wind Chill Definition


Weather Definition


00:00 0.1 -2.4 83   5 7   102.01     LegendNANA
01:00 -1.2 -3.1 87     0   102.04     LegendNANA
02:00 -2.1 -3.8 88     0   102.08     LegendNANA
03:00 -2.5 -3.9 90     0   102.10     LegendNANA
04:00 -2.9 -4.3 90     0   102.11     LegendNANA
05:00 -3.0 -4.4 90     0   102.12     LegendNANA
06:00 -2.1 -3.4 91     0   102.15     LegendNANA
07:00 1.2 -1.8 80     0   102.17     LegendNANA
08:00 5.2 0.0 69     0   102.17     LegendNANA
09:00 8.6 -0.3 54   6 4   102.15     LegendNANA
10:00 10.8 -1.8 41   13 9   102.10     LegendNANA
11:00 12.1 -1.8 38   8 7   102.01     LegendNANA
12:00 12.9 -2.5 34   23 6   101.95     LegendNANA
13:00 12.3 -0.1 42   6 19   101.88     LegendNANA
14:00 12.8 -0.3 40   6 19   101.83     LegendNANA
15:00 12.4 -0.7 40   9 19   101.82     LegendNANA
16:00 12.5 -0.7 40   13 17   101.82     LegendNANA
17:00 11.8 -1.2 40   11 19   101.82     LegendNANA
18:00 9.8 0.1 51   9 17   101.83     LegendNANA
19:00 9.3 1.0 56   10 7   101.84     LegendNANA
20:00 9.1 1.7 60   22 6   101.89     LegendNANA
21:00 8.9 3.2 67   24 17   101.92     LegendNANA
22:00 7.5 3.3 75   24 11   101.92     LegendNANA
23:00 6.3 2.9 79   24 11   101.98     LegendNANA

Notes on Data Quality.

Legend

  • E = Estimated
  • M = Missing
  • NA = Not Available*
  • [empty] = Indicates an unobserved value
Date modified: